Simultaneous Nadir Overpasses (SNOs) Predictions

Prediction of SNOs between METOP-B and TERRA Satellite Orbit:

Table of predicted SNOs for the next 14.0 days since TLE Epoch: 4/16/2016
Index Date (METOP-B) Time (METOP-B) Lat,Lon (METOP-B) SZA (METOP-B ) Date (TERRA) Time (TERRA) Lat,Lon (TERRA) SZA (TERRA ) Distance(km) Time Diff (sec)
1 04/16/2016 20:28:13 81.32, -79.51 73.70 04/16/2016 20:28:59 81.33, -79.48 73.73 0.79 46
2 04/16/2016 21:18:54 -81.32, 87.90 106.31 04/16/2016 21:18:26 -81.32, 88.07 106.30 2.82 28
3 04/19/2016 16:02:36 81.32, -13.20 72.74 04/19/2016 16:03:18 81.33, -13.01 72.78 3.34 42
4 04/19/2016 16:53:16 -81.32, 154.63 107.22 04/19/2016 16:52:45 -81.33, 154.59 107.24 0.57 31
5 04/22/2016 11:36:58 81.32, 53.08 71.79 04/22/2016 11:37:39 81.31, 53.08 71.80 0.67 41
6 04/
